Back to catalog

STARLINK-30331

AliveCommunicationsVLEO
NORAD 57740·PAYLOAD·🇺🇸 United States

Launched Sep 1, 2023 from Cape Canaveral Space Force Station

Loading…

Next Passes (next 24 hours)

TLE

FreshSource: CelesTrak SupGP

Epoch: Sep 14, 2026, 21:02 UTC

1 57740C 23131J   26257.87687500  .00002763  00000+0  99931-4 0  2575
2 57740  43.0023 110.9773 0001609 261.9559 268.3512 15.27623877    14

Track STARLINK-30331 in real time with AllMySat

Download on the App Store